Home > Weather > Milan > Past weeks

Flag for Italy Past Weather in Milan, Italy — Yesterday and Last 2 Weeks

Now
81 °F

Passing clouds.


Feels Like: 81 °F
Forecast: 72 / 85 °F
Wind: 1 mph from North

Location: Milan / Linate

Current Time: Jul 30, 2016 at 9:26:53 AM

Latest Report: Jul 30, 2016 at 8:50 AM


Visibility: N/A

Pressure: 29.98 "Hg

Humidity: 51%

Dew Point: 61 °F

Location of MilanLocation

Past Weather in Milan — Graph

°F

Milan Temperature Yesterday

Maximum temperature yesterday: 90 °F (at 5:50 PM)
Minimum temperature yesterday: 70 °F (at 6:20 AM)
Average temperature yesterday: 79 °F

High & Low Weather Summary for the Past Weeks

 TemperatureHumidityPressure
High93 °F (Jul 20, 6:50 PM)100% (Jul 28, 3:20 AM)30.15 "Hg (Jul 28, 3:20 AM)
Low57 °F (Jul 16, 4:20 AM)18% (Jul 16, 12:50 PM)29.89 "Hg (Jul 21, 6:50 PM)
Average78 °F56%30.01 "Hg
* Reported Jul 15 7:20 AM — Jul 30 7:50 AM, Milan, Weather by CustomWeather, © 2016

Note: Actual official high and low records may vary slightly from our data, if they occured in-between our weather recording intervals... More about our weather records

Advertising

Milan Weather History for the Previous 24 Hours

Scroll right to see more
 ConditionsComfort  
Time TempWeatherWind HumidityBarometerVisibility
7:50 AM
Sat, Jul 30
77 °FPassing clouds.No wind61%29.98 "HgN/A
7:20 AM73 °FPassing clouds.No wind69%29.98 "HgN/A
6:50 AM72 °FPassing clouds.No wind73%29.98 "HgN/A
6:20 AM72 °FPassing clouds.1 mph73%29.98 "HgN/A
5:50 AM72 °FClear.3 mph73%29.98 "Hg10 mi
4:20 AM72 °FClear.1 mph73%29.95 "Hg10 mi
3:50 AM73 °FClear.No wind69%29.95 "Hg10 mi
3:20 AM73 °FClear.No wind65%29.95 "Hg10 mi
2:50 AM75 °FClear.No wind57%29.95 "Hg10 mi
2:20 AM77 °FClear.1 mph54%29.95 "Hg10 mi
1:50 AM77 °FClear.2 mph54%29.95 "Hg10 mi
1:20 AM77 °FPassing clouds.3 mph57%29.95 "HgN/A
12:50 AM79 °FPassing clouds.3 mph54%29.95 "HgN/A
12:20 AM79 °FPassing clouds.3 mph54%29.95 "HgN/A
11:50 PM
Fri, Jul 29
79 °FPassing clouds.3 mph58%29.95 "HgN/A
11:20 PM79 °FClear.2 mph65%29.95 "Hg10 mi
10:50 PM79 °FClear.3 mph65%29.95 "Hg10 mi
10:20 PM79 °FClear.2 mph65%29.95 "Hg10 mi
9:50 PM81 °FSunny.3 mph62%29.92 "Hg10 mi
9:20 PM81 °FPassing clouds.3 mph58%29.92 "HgN/A
8:50 PM82 °FSunny.3 mph55%29.92 "Hg10 mi
8:20 PM84 °FSunny.3 mph51%29.92 "Hg10 mi
7:50 PM84 °FPassing clouds.6 mph48%29.89 "HgN/A
7:20 PM86 °FPassing clouds.7 mph43%29.89 "HgN/A
6:50 PM88 °FPassing clouds.6 mph40%29.92 "HgN/A
6:20 PM88 °FPassing clouds.5 mph46%29.92 "HgN/A
5:50 PM90 °FScattered clouds.6 mph38%29.92 "HgN/A
5:20 PM88 °FScattered clouds.6 mph46%29.92 "HgN/A
4:50 PM88 °FScattered clouds.7 mph43%29.92 "HgN/A
4:20 PM88 °FScattered clouds.3 mph46%29.92 "HgN/A
3:50 PM88 °FScattered clouds.6 mph46%29.95 "HgN/A
3:20 PM86 °FScattered clouds.5 mph49%29.95 "HgN/A
2:50 PM86 °FScattered clouds.5 mph49%29.95 "HgN/A
2:20 PM86 °FScattered clouds.5 mph49%29.95 "HgN/A
1:50 PM84 °FScattered clouds.5 mph51%29.98 "HgN/A
1:20 PM84 °FPassing clouds.6 mph48%29.98 "HgN/A
12:50 PM84 °FScattered clouds.5 mph55%29.98 "HgN/A
12:20 PM82 °FScattered clouds.3 mph55%29.98 "HgN/A
11:50 AM82 °FScattered clouds.3 mph58%29.98 "HgN/A
11:20 AM81 °FScattered clouds.5 mph62%29.98 "HgN/A
10:50 AM81 °FPassing clouds.5 mph58%29.98 "HgN/A
10:20 AM79 °FPassing clouds.5 mph61%29.98 "HgN/A
9:50 AM77 °FScattered clouds.5 mph65%29.98 "HgN/A
9:20 AM77 °FScattered clouds.5 mph65%29.98 "HgN/A
Weather by CustomWeather, © 2016

See weather overviewHow to use our weather pages